Showing default

TIANQI 39, 67478

Orbit data source: Space-Track

TIANQI 39, 67478 is a payload satellite owned by Guodian Gaokeji (CN) in LEO that was launched on Thu, 15 Jan 2026 UTC via a GUSHENXING 1 launch vehicle from the Yellow Sea Launch Area, China (YSLA). Payload-class satellites include a variety of spacecraft equipped with specific instruments for various scientific and technological missions. These include communications satellites like Starlink; space stations such as the ISS; scientific satellites like the Hubble; Earth observation satellites from companies like Planet Labs, Umbra, and HawkEye 360; GPS; miniature CubeSats for education and research; and military/defense satellites.

Loading next visibility...
Identifier
67478, 2026-010C
Orbit
LEO
Country
Flag of CNCN / PRC
Related business
Manufacturer
Shanghai ASES
Mission
Operational Commercial Communications
Bus & Motor
STARLIGHTB, Unknown motor
Mass
40 kg wet, ~40 kg dry
Launch date (UTC)
2026-01-15 (5 months ago)
Launch vehicle
GUSHENXING 1
Launch site
Yellow Sea Launch Area, China (YSLA)
Object type
Payload
Rocket body
Debris
Shape & HBR
Box, 0.6 m
Radar Cross Section
0.195 m², Medium (>0.1 m² and < 1m²)

Expand to show TLE details & history
Last TLE update: 1 week ago

TLE from 1 week ago
0 TIANQI 39
1 67478U 26010C   26164.54161418 -.00000005  00000-0  79242-4 0  9994
2 67478  44.9799  94.3237 0015620 321.2511  38.7202 14.03665883 20933
Epoch: 2026-06-13T12:59Z
TLE epoch observation values (Epoch: 2026-06-13T12:59:55.465Z)
Latitude
-0.00003°
Longitude
-2.51265°
Altitude
872.286 km
Speed
7.422 km/s
True Right ascension
06h 17m 17s
True Declination
0° 00' 00"
Sunlit
Object was in daylight at epoch
Visualization orbit readout
Latitude
Unknown
Longitude
Unknown
Altitude
Unknown
Speed
Unknown
Apparent Right ascension
Unknown
Apparent Declination
Unknown
Sunlit
N/A
Visualization observer readout
Local Sidereal Time
07:20:26
Azimuth
Unknown
Elevation
Unknown
Doppler factor
Unknown
Orbital elements
Apogee altitude
893.994 km
Perigee altitude
871.312 km
Semi-major axis
7,260.79 km
Eccentricity
0.00156
Inclination
44.9799°
RAAN
94.3237°
Arg. of periapsis
321.2511°
True anomaly
38.83233°
Mean anomaly
38.7202°
Eccentric anomaly
38.77625°
Mean motion
3.50806 °/min
Orbital period
102.62 mins
BSTAR
0.000079242
Loading maneuver chart data...
Computing Atmospheric mass density...
Loading historical data...
Loading historical data...
Loading historical data...
Loading historical data...
Loading historical data...
Loading historical data...
Loading historical data...
Other satellites on launch #10 in the year 2026 (2026-01-15 UTC)

Documentation

Showing up to 5 results
|